User: anonymous   Login
Location: Unspecified
(0.0000°N, 0.0000°E)
Time: 14:37:54
(UTC+02:00)
Language:

Cosmos 494 Rocket - Orbit

View from above orbital plane
View from above orbital plane
View from above satellite
View from above satellite

Ground track
Ground track

The orbit data is extracted from the following two-line orbital elements,

1 06061U 72043B   15089.46703451  .00000471  00000-0  15646-3 0  9999
2 06061 074.0566 235.4659 0020588 211.7672 148.2243 14.40331397241721
Epoch (UTC): 30 March 2015 11:12:31
Eccentricity: 0.0020588
inclination: 74.0566°
perigee height: 743 km
apogee height: 772 km
right ascension of ascending node: 235.4659°
argument of perigee: 211.7672°
revolutions per day: 14.40331397
mean anomaly at epoch: 148.2243°
orbit number at epoch: 24172

The dashed part of the orbit path shows where the satellite is in the earth's shadow,  

DLR